星链-5007 (STARLINK-5007 )

导读

STARLINK-5007是美国太空探索技术公司(SpaceX)“星链”星座中的一颗卫星,于2023年7月16日发射入轨,属于星链项目扩容批次任务。该卫星主要为全球范围内提供高速互联网接入服务,尤其覆盖偏远地区,助力星链低轨互联网星座的全球组网进程,是SpaceX推进卫星互联网部署的重要组成部分。

基本信息
目录编号:
57365
目录名称:
STARLINK-5007
国际标识:
2023-099AP
轨道中心:
EARTH
卫星名称:
星链-5007
卫星全名:
星链-5007 (STARLINK-5007 )
卫星状态:
在轨 (已飞行1156 天)
发射日期:
2023-07-16 UTC
国别 :
美国 (US)
星等 :
--
该卫星已列入 空间交会检测服务 Space Conjunction Data Service (SCDS) ,当前飞行风险评估等级: 无高风险
轨道信息
数据来源 国际轨道数据
星历时间: 2026-09-14T08:46:20+0800
15小时前
查看轨道信息
半长轴: 6861.196km
偏心率: 0.0001149
轨道倾角: 43.001°
近地点辐角 266.010°
升交点赤经 258.031°
平近点角 94.062°
近地点: 482.27km
远地点: 483.848km
周期: 94.267分钟
每日圈数: 15.275768
详细信息
固有亮度:
5
最大亮度:
2.5
卫星平台:
Starlink v1.5
覆盖范围:
全球
运营商:
太空探索技术公司
运营商所在国:
美国
制造商(研发单位):
太空探索技术公司
制造商所在国:
美国
使用方式:
暂无
卫星简介
星链(Starlink)计划是由太空探索技术公司(SpaceX)提出的一个巨型低轨卫星互联网星座项目,计划在2019年至2024年间在太空搭建由约1.2万颗卫星组成的“星链”网络,其中1584颗将部署在地球上空550千米处的近地轨道,并从2020年开始工作。该卫星仍在工作。
2D轨道图
3D轨道图
轨道高度分析图
轨道倾角分析图
轨道综合分析图
查看轨道综合分析图
交会数据列表
事件ID 空间交会对象 最接近时刻(TCA) 交会距离 交会风险概率(CRP) 交会风险指数(CRI) 操作
CDM_260915-011005-736505-870125
2026-09-15T
01:10:12+0000
1.156 km
极远距离
1.601776E-5 中风险 0.59
CDM_260916-014605-736506-729022
2026-09-16T
01:46:43+0000
1.672 km
极远距离
3.920871E-6 低风险 0.47
与全量物体交会距离演化趋势 订阅飞行安全评估服务
与全量物体交会风险概率演化趋势 订阅飞行安全评估服务